Gadsden, AL

7:36 PM CST on November 19, 2019 (GMT -0600)
Gadsden Municipal

Weather History for KGAD - October, 2019

Change the Weather History Date:

Wednesday, October 23, 2019

  Actual Average Record
Temperature  
Mean Temperature 52 °F -  
Max Temperature 69 °F 70 °F 91 °F (1941)
Min Temperature 35 °F 45 °F 32 °F (1997)
Degree Days  
Heating Degree Days 13    
Growing Degree Days 2 (Base 50)    
Moisture  
Dew Point 39 °F    
Average Humidity 69    
Maximum Humidity 100    
Minimum Humidity 29    
Precipitation  
Precipitation 0.00 in - - ()
Sea Level Pressure  
Sea Level Pressure 30.20 in    
Wind  
Wind Speed 1 mph ()    
Max Wind Speed 6 mph    
Max Gust Speed -    
Visibility 10.0 miles    
Events      
Averages and records for this station are not official NWS values.
T = Trace of Precipitation, MM = Missing Value Source: Averaged Metar Reports

Daily Weather History Graph

Daily Weather History Graph

Search for Another Location

Airport or City:

Astronomy

Oct. 23, 2019 Rise Set
Actual Time 6:55 AM CDT 6:01 PM CDT
Civil Twilight 6:30 AM CDT 6:26 PM CDT
Nautical Twilight 6:01 AM CDT 6:55 PM CDT
Astronomical Twilight 5:32 AM CDT 7:24 PM CDT
Moon 1:33 AM CDT (10/23) 3:33 PM CDT (10/23)
Length of Visible Light 11h 56m
Length of Day
11h 05m
Waning Crescent, 26% of the Moon is Illuminated
Oct 23
Waning Crescent
Oct 27
New
Nov 4
First Quarter
Nov 12
Full
Nov 19
Last Quarter

Hourly Weather History & Observations

Time (CDT) Temp. Dew Point Humidity Pressure Visibility Wind Dir Wind Speed Gust Speed Precip Events Conditions
12:56 AM 43.0 °F 39.9 °F 89% 30.15 in 10.0 mi Calm Calm - N/A   Clear
1:56 AM 42.1 °F 39.0 °F 89% 30.17 in 10.0 mi Calm Calm - N/A   Clear
3:56 AM 39.9 °F 39.0 °F 97% 30.17 in 10.0 mi Calm Calm - N/A   Clear
4:56 AM 37.0 °F 37.0 °F 100% 30.19 in 10.0 mi Calm Calm - N/A   Clear
5:56 AM 37.0 °F 36.0 °F 96% 30.20 in 10.0 mi Calm Calm - N/A   Clear
6:56 AM 35.1 °F 35.1 °F 100% 30.22 in 10.0 mi Calm Calm - N/A   Clear
7:56 AM 42.1 °F 39.9 °F 92% 30.22 in 10.0 mi Calm Calm - N/A   Clear
8:56 AM 50.0 °F 43.0 °F 77% 30.23 in 10.0 mi Calm Calm - N/A   Clear
9:56 AM 57.0 °F 41.0 °F 55% 30.23 in 10.0 mi North 5.8 mph - N/A   Clear
10:56 AM 62.1 °F 39.9 °F 44% 30.24 in 10.0 mi Variable 4.6 mph - N/A   Clear
11:56 AM 64.9 °F 37.9 °F 37% 30.22 in 10.0 mi Variable 3.5 mph - N/A   Clear
12:56 PM 64.9 °F 32.0 °F 29% 30.21 in 10.0 mi North 5.8 mph - N/A   Clear
1:56 PM 66.9 °F 35.1 °F 31% 30.19 in 10.0 mi Variable 3.5 mph - N/A   Clear
2:56 PM 66.9 °F 34.0 °F 30% 30.18 in 10.0 mi Calm Calm - N/A   Clear
3:56 PM 69.1 °F 35.1 °F 29% 30.17 in 10.0 mi East 4.6 mph - N/A   Clear
4:56 PM 66.9 °F 36.0 °F 32% 30.17 in 10.0 mi Calm Calm - N/A   Clear
5:56 PM 61.0 °F 42.1 °F 50% 30.18 in 10.0 mi Calm Calm - N/A   Clear
6:56 PM 53.1 °F 43.0 °F 69% 30.21 in 10.0 mi Calm Calm - N/A   Clear
7:56 PM 48.9 °F 43.0 °F 80% 30.21 in 10.0 mi Calm Calm - N/A   Clear
8:56 PM 45.0 °F 42.1 °F 90% 30.22 in 10.0 mi Calm Calm - N/A   Clear
9:56 PM 43.0 °F 41.0 °F 93% 30.23 in 10.0 mi Calm Calm - N/A   Clear
10:56 PM 42.1 °F 39.9 °F 92% 30.24 in 10.0 mi Calm Calm - N/A   Clear
11:56 PM 39.9 °F 37.9 °F 93% 30.23 in 10.0 mi Calm Calm - N/A   Clear